Location: Krasnoyarskiy Pitomnik
(51.1333°N, 71.6167°E)
Time: 22:30:07
(UTC+00:00)

A-11 Canister half - Pass Details

Date: 20 April 2024
Orbit: 1525 x 1683 km, 47.3° (Epoch: 19 May)

Event Time Altitude Azimuth Distance (km) Brightness Sun altitude
Rises 04:44:51 0° 271° (W) 4,923 11.3 40.5°
Reaches altitude 10° 04:48:01 10° 270° (W) 3,943 10.9 40.9°
Maximum altitude 04:58:05 70° 189° (S) 1,770 10.3 42.0°
Drops below altitude 10° 05:08:05 10° 109° (ESE) 3,913 12.0 43.2°
Sets 05:11:12 0° 107° (ESE) 4,884 12.3 43.5°
